Preview of NWS' New Version of Forecast
This preview is not operational and should not be used for support decisions.

Terminal Aerodrome Forecast (TAF)

Issued by National Weather Service (NWS)

                            
000
FTUS42 KKEY 140522
TAFEYW
TAF
KEYW 140522Z 1406/1506 11007KT P6SM VCSH SCT020 SCT040
      TEMPO 1406/1407 13010G18KT 5SM SHRA
     FM141400 10009KT P6SM SCT025=